[[{"header":{"parameterUnit":"m.s-1","parameterCategory":1,"la1":30.2991,"la2":30.254,"lo1":-89.0895,"lo2":-89.0444,"dy":0.0017,"dx":0.0017,"nx":28,"ny":28,"refTime":"2023-11-21T03:00:00:Z","depth":0,"parameterNumber":2,"parameterNumberName":"U-component_of_WINDS"},"data":[0,0,0,0,0,0,0,0,0,0,0,0,0,0,0,0,0,0,0,0,0,0,0,0,0,0,0,0,0,0,0,0,0,0,0,0,0,0,0,0,0,0,0,0,0,0,0,0,0,0,0,0,0,0,0,0,0,0,3.176,3.176,0,3.1776,3.1776,3.1776,3.171,3.1708,3.1706,3.1704,3.1725,3.1728,3.173,0,0,0,0,0,0,0,0,0,0,0,0,0,3.1681,3.1682,3.176,3.176,3.176,3.1776,3.1776,3.1776,3.171,3.1708,3.1706,3.1703,3.1725,3.1727,3.173,0,0,0,0,0,0,0,0,0,0,0,0,0,3.1708,3.1683,3.176,3.1729,3.1727,3.1776,3.1776,3.1776,3.1711,3.1708,3.1705,3.1702,3.1724,3.1727,3.1731,3.1812,0,0,3.1742,3.1743,0,0,0,0,0,0,0,0,3.1706,3.1711,3.1734,3.1731,3.1729,3.1738,3.1756,3.1788,3.1712,3.1717,3.1704,3.1701,3.1732,3.1735,3.1744,3.1813,3.1813,3.1742,3.1744,3.1746,3.1747,0,0,0,0,0,0,0,3.1704,3.171,3.1766,3.1734,3.1731,3.1717,3.1718,3.1762,3.1741,3.1716,3.1712,3.1714,3.173,3.1741,3.1745,3.1814,3.1742,3.1745,3.1747,3.1749,3.1957,3.196,0,0,0,0,0,0,3.1706,3.1709,3.1766,3.1767,3.171,3.1721,3.1722,3.1738,3.174,3.1738,3.1717,3.1711,3.1737,3.174,3.1745,3.1845,3.1746,3.1749,3.1751,3.1953,3.1957,3.1961,0,0,0,0,0,0,3.1704,3.1711,3.1765,3.1736,3.1742,3.1726,3.1744,3.174,3.175,3.174,3.1737,3.1731,3.1734,3.174,3.1797,3.1844,3.1751,3.1754,3.1949,3.1954,3.1959,3.2042,0,0,0,0,0,0,3.1702,3.1711,3.174,3.1737,3.1744,3.1814,3.1747,3.1742,3.1756,3.1749,3.1753,3.1751,3.1732,3.1792,3.18,3.1848,3.1757,3.1945,3.1952,3.1958,3.2035,3.2049,3.2061,0,0,0,0,0,3.17,3.1762,3.1741,3.1749,3.1779,3.1817,3.1821,3.1797,3.176,3.1791,3.1785,3.1751,3.1837,3.1798,3.1807,3.1856,3.1942,3.195,3.1957,3.2029,3.2046,3.2061,0,0,0,0,0,0,3.177,3.1761,3.1738,3.1801,3.181,3.1806,3.1843,3.1815,3.1836,3.1829,3.18,3.1802,3.1865,3.1866,3.1822,3.1938,3.1884,3.1894,3.1935,3.1952,3.1965,3.1965,3.176,0,0,0,0,0,3.1793,3.1823,3.1813,3.187,3.1876,3.1859,3.1875,3.1856,3.1865,3.1869,3.1867,3.188,3.191,3.1931,3.1957,3.2034,3.2038,3.2073,3.2087,3.2097,3.2107,3.2154,3.2172,3.1986,3.1986,3.1986,0,0,3.184,3.1839,3.1859,3.1885,3.1889,3.1925,3.1863,3.19,3.1928,3.1875,3.193,3.193,3.1942,3.2011,3.2041,3.2013,3.2159,3.2107,3.2116,3.212,3.2164,3.2182,3.2198,3.1991,3.199,3.1989,0,0,3.1945,3.1945,3.1995,3.2002,3.2011,3.2,3.2012,3.2013,3.2011,3.2065,3.2028,3.2061,3.2112,3.2124,3.2137,3.2253,3.2225,3.2263,3.2333,3.2379,3.2394,3.2407,3.2453,3.247,3.2272,3.2272,3.2272,0,3.2004,3.2053,3.2024,3.2067,3.2081,3.2035,3.2088,3.2097,3.2115,3.2128,3.2096,3.2164,3.2168,3.2242,3.2271,3.2281,3.2299,3.2263,3.2394,3.2406,3.2418,3.2462,3.2479,3.2277,3.2276,3.2276,3.2275,0,3.2127,3.2162,3.2201,3.222,3.2239,3.2286,3.2269,3.2292,3.2273,3.2267,3.2326,3.233,3.236,3.2376,3.2356,3.2449,3.2433,3.2398,3.2343,3.2441,3.2483,3.2499,3.2284,3.2282,3.2281,3.228,0,0,3.2275,3.2281,3.2296,3.2307,3.2315,3.2343,3.2391,3.242,3.2443,3.2458,3.25,3.2548,3.2517,3.2532,3.2515,3.2555,3.2654,3.2516,3.2516,3.2545,3.2763,3.2792,3.2811,3.2634,3.2637,3.264,3.2764,0,3.2382,3.2461,3.244,3.2521,3.2557,3.2516,3.2558,3.2571,3.2567,3.2599,3.2596,3.2632,3.2586,3.2596,3.2634,3.2633,3.2698,3.2624,3.2678,3.268,3.268,3.2832,3.2861,3.2978,3.2779,3.2782,3.2784,0,3.2516,3.2538,3.2622,3.263,3.2644,3.2682,3.2711,3.274,3.2755,3.275,3.277,3.2746,3.2798,3.2742,3.2816,3.2767,3.2788,3.2792,3.2796,3.2803,3.274,3.2847,3.3013,3.3033,3.2808,3.2806,3.2804,0,3.2622,3.2672,3.273,3.274,3.2749,3.2778,3.2784,3.2796,3.2817,3.2842,3.2856,3.2887,3.2906,3.2932,3.292,3.2879,3.2999,3.294,3.3001,3.3002,3.3029,3.3028,3.3206,3.3037,3.3037,3.3037,3.3036,0,3.2745,3.28,3.2779,3.2815,3.2877,3.2854,3.2917,3.2918,3.2931,3.297,3.2936,3.2975,3.2954,3.2992,3.2983,3.305,3.3057,3.3058,3.3056,3.3063,3.3064,3.3079,3.3072,3.3041,3.304,3.304,3.3039,0,3.2874,3.2861,3.2923,3.2928,3.2931,3.2977,3.2983,3.302,3.3015,3.3066,3.3076,3.307,3.3114,3.3104,3.3151,3.3145,3.3231,3.3216,3.3226,3.3224,3.3287,3.3283,3.3483,3.3511,3.3321,3.3322,3.3324,0,3.2955,3.2996,3.3006,3.303,3.3038,3.3076,3.3097,3.3078,3.3102,3.3126,3.3161,3.3202,3.3233,3.3306,3.3308,3.3347,3.3335,3.3403,3.3341,3.3349,3.3342,3.3342,3.3348,3.3416,3.3418,3.342,3.3422,0,3.3102,3.3094,3.3125,3.3157,3.3183,3.3207,3.3228,3.325,3.3232,3.3263,3.3307,3.3331,3.3382,3.3425,3.3461,3.3471,3.3446,3.3441,3.3458,3.3468,3.3474,3.3477,3.3264,3.3437,3.3435,3.3434,3.3433,3.3433,3.3212,3.3249,3.3263,3.3301,3.3315,3.3337,3.3373,3.3373,3.3409,3.3448,3.3435,3.3487,3.3508,3.3554,3.3568,3.3612,3.3587,3.361,3.3617,3.3624,3.3634,3.3464,3.3618,3.3617,3.3617,3.3616,3.3616,0,3.3361,3.3369,3.3404,3.3435,3.3466,3.3437,3.3461,3.349,3.3536,3.3556,3.3589,3.3643,3.3686,3.3693,3.3735,3.3769,3.3759,3.3781,3.378,3.3785,3.3651,3.3634,3.3789,3.3789,3.3789,3.3789,3.3789,3.3789,3.3442,3.3505,3.3501,3.3573,3.3581,3.3631,3.3648,3.367,3.3686,3.3748,3.3783,3.3787,3.3804,3.3848,3.3888,3.389,3.3909,3.3937,3.3934,3.381,3.3793,3.3777,3.3761,3.394,3.394,3.4064,3.4066,3.4066]},{"header":{"parameterUnit":"m.s-1","parameterCategory":1,"la1":30.2991,"la2":30.254,"lo1":-89.0895,"lo2":-89.0444,"dy":0.0017,"dx":0.0017,"nx":28,"ny":28,"refTime":"2023-11-21T03:00:00:Z","depth":0,"parameterNumber":3,"parameterNumberName":"V-component_of_WINDS"},"data":[0,0,0,0,0,0,0,0,0,0,0,0,0,0,0,0,0,0,0,0,0,0,0,0,0,0,0,0,0,0,0,0,0,0,0,0,0,0,0,0,0,0,0,0,0,0,0,0,0,0,0,0,0,0,0,0,0,0,4.4757,4.4762,0,4.5222,4.5228,4.5233,4.5339,4.5335,4.5332,4.5329,4.5812,4.5827,4.5843,0,0,0,0,0,0,0,0,0,0,0,0,0,4.3963,4.3977,4.4756,4.4762,4.4768,4.5221,4.5228,4.5234,4.5339,4.5335,4.5331,4.5328,4.5806,4.5825,4.5844,0,0,0,0,0,0,0,0,0,0,0,0,0,4.4356,4.3982,4.4755,4.4875,4.489,4.522,4.5228,4.5236,4.534,4.5335,4.533,4.5326,4.58,4.5823,4.5847,4.6092,0,0,4.592,4.593,0,0,0,0,0,0,0,0,4.4334,4.4385,4.4851,4.4867,4.4885,4.5217,4.5125,4.5523,4.5341,4.5169,4.5329,4.5323,4.5618,4.5657,4.5755,4.6115,4.6136,4.5922,4.5936,4.5946,4.5953,0,0,0,0,0,0,0,4.4306,4.4366,4.4941,4.4858,4.4879,4.4907,4.4957,4.5201,4.5416,4.5184,4.5193,4.5246,4.5626,4.5732,4.5767,4.6143,4.5921,4.5942,4.5957,4.5966,4.673,4.6736,0,0,0,0,0,0,4.4257,4.4342,4.4926,4.4955,4.4591,4.4925,4.4982,4.5116,4.5413,4.5454,4.525,4.5249,4.5693,4.5739,4.5784,4.6094,4.5946,4.5969,4.5982,4.6724,4.6732,4.6738,0,0,0,0,0,0,4.424,4.4309,4.4907,4.4651,4.473,4.4944,4.5094,4.5127,4.5233,4.5463,4.5502,4.5318,4.5691,4.5751,4.6015,4.6112,4.5979,4.6001,4.6717,4.6727,4.6735,4.6713,0,0,0,0,0,0,4.4217,4.4302,4.4396,4.4652,4.4743,4.5128,4.51,4.514,4.5273,4.5277,4.5537,4.5576,4.5692,4.5979,4.6039,4.6142,4.602,4.671,4.6721,4.6732,4.6706,4.672,4.6732,0,0,0,0,0,4.4188,4.4372,4.44,4.447,4.4865,4.5134,4.5186,4.5314,4.528,4.5378,4.5526,4.5568,4.6091,4.6005,4.6074,4.6186,4.6704,4.6718,4.6731,4.67,4.6717,4.6731,0,0,0,0,0,0,4.4123,4.4407,4.4442,4.4714,4.4898,4.5151,4.5278,4.5328,4.5527,4.5523,4.5675,4.5733,4.5989,4.6114,4.6013,4.644,4.6397,4.6424,4.635,4.6368,4.638,4.6346,4.604,0,0,0,0,0,4.4139,4.4332,4.4571,4.4788,4.4879,4.5062,4.5184,4.5267,4.5465,4.5544,4.5712,4.5904,4.6113,4.6247,4.6451,4.6723,4.6783,4.6834,4.6847,4.6857,4.688,4.7036,4.7062,4.6782,4.6782,4.6782,0,0,4.4177,4.4356,4.4469,4.4779,4.4932,4.5131,4.5127,4.5337,4.5486,4.5577,4.5837,4.5966,4.6191,4.6461,4.6589,4.6573,4.697,4.6874,4.688,4.6898,4.7053,4.7079,4.7102,4.6792,4.679,4.6788,0,0,4.4347,4.45,4.4699,4.4852,4.5083,4.5204,4.5251,4.5497,4.5586,4.5848,4.5921,4.6102,4.6456,4.6615,4.6741,4.6971,4.7018,4.7033,4.7102,4.7252,4.7275,4.7295,4.738,4.7408,4.7055,4.7055,4.7055,0,4.4365,4.4665,4.4795,4.5002,4.5138,4.5226,4.543,4.5573,4.5859,4.5951,4.5929,4.6377,4.6535,4.6844,4.69,4.6999,4.706,4.7005,4.726,4.7282,4.7303,4.7386,4.7417,4.7055,4.7055,4.7055,4.7055,0,4.4677,4.4884,4.5016,4.5289,4.544,4.5643,4.5807,4.5943,4.6013,4.6136,4.6404,4.6596,4.6842,4.6921,4.6991,4.7241,4.7225,4.7229,4.719,4.7328,4.7409,4.7441,4.7056,4.7056,4.7056,4.7056,0,0,4.482,4.5162,4.5209,4.5334,4.5596,4.576,4.5968,4.6207,4.6322,4.6516,4.6697,4.6995,4.7002,4.7145,4.7234,4.7366,4.7539,4.7356,4.7363,4.7385,4.783,4.7827,4.7861,4.757,4.7577,4.7582,4.7812,0,4.5024,4.5398,4.5521,4.5834,4.6028,4.6115,4.6298,4.6479,4.66,4.6784,4.6918,4.7128,4.7119,4.7207,4.734,4.7489,4.7631,4.7474,4.7743,4.7751,4.7687,4.7903,4.79,4.8108,4.7844,4.7849,4.7853,0,4.5312,4.5509,4.584,4.6079,4.6165,4.6326,4.6556,4.673,4.6938,4.7017,4.7177,4.7256,4.748,4.7424,4.7737,4.7627,4.7745,4.7834,4.7846,4.7878,4.7812,4.7944,4.8177,4.8209,4.7904,4.79,4.7896,0,4.5386,4.5735,4.5979,4.6083,4.6367,4.6478,4.6602,4.6805,4.6941,4.7142,4.7232,4.7456,4.758,4.7754,4.7892,4.7838,4.8194,4.8149,4.8268,4.8265,4.8342,4.8335,4.86,4.8412,4.8411,4.841,4.841,0,4.5602,4.5802,4.6016,4.6166,4.6393,4.6534,4.6755,4.6884,4.7064,4.7243,4.7332,4.7498,4.7669,4.7859,4.7968,4.8212,4.8267,4.8339,4.8367,4.8333,4.8324,4.8414,4.8405,4.8419,4.8417,4.8415,4.8414,0,4.5725,4.5875,4.6147,4.6393,4.646,4.6616,4.6828,4.6978,4.7102,4.7327,4.7388,4.7584,4.7812,4.7966,4.8258,4.8332,4.8598,4.8621,4.8527,4.8541,4.8653,4.8641,4.8987,4.9041,4.8812,4.8814,4.8816,0,4.5854,4.6009,4.6272,4.6397,4.652,4.6721,4.686,4.7004,4.7146,4.7395,4.7516,4.7749,4.7944,4.8304,4.8474,4.8698,4.873,4.8835,4.8764,4.8726,4.8735,4.8725,4.8743,4.8847,4.8848,4.885,4.8851,0,4.6068,4.6135,4.6331,4.6554,4.6717,4.69,4.7084,4.7182,4.7359,4.7514,4.7747,4.7897,4.8195,4.8427,4.8667,4.8797,4.8856,4.8871,4.8912,4.8881,4.8821,4.8858,4.856,4.8864,4.8863,4.8862,4.8861,4.886,4.6201,4.6344,4.6551,4.6767,4.692,4.709,4.7244,4.7386,4.7583,4.7835,4.7909,4.8152,4.8359,4.8688,4.8821,4.9016,4.9007,4.9064,4.9079,4.9092,4.9093,4.8787,4.906,4.9059,4.9059,4.9059,4.9059,0,4.6422,4.6559,4.6756,4.701,4.7181,4.7217,4.7423,4.7564,4.7776,4.7963,4.8152,4.8421,4.8646,4.8834,4.9067,4.9187,4.922,4.9244,4.9238,4.9268,4.9086,4.903,4.9213,4.9213,4.9213,4.9213,4.9213,4.9213,4.6557,4.6802,4.6893,4.7216,4.7353,4.7591,4.7706,4.7864,4.8014,4.831,4.8497,4.8616,4.8805,4.9053,4.9262,4.9312,4.9395,4.9414,4.9469,4.9297,4.928,4.9263,4.9211,4.943,4.943,4.9635,4.9637,4.9638]}]]